EW0625 Weather Reports


time (UTC)temp
C
wind
direction
speed
KPH
gust
KPH
rain 1hr
cm
rain 24hr
cm
rain mn
cm
humidity
%
barometer
mb
20260508214056 16 250 4.8 9.7 0.00 0.00 0.00 55 1005.9
20260508213536 16 246 3.2 8.0 0.00 0.00 0.00 55 1005.9
20260508213014 16 165 0.0 12.9 0.00 0.00 0.00 53 1005.9
20260508212534 16 239 4.8 12.9 0.00 0.00 0.00 52 1005.9
20260508212014 16 254 1.6 14.5 0.00 0.00 0.00 51 1005.9
20260508211550 16 280 3.2 16.1 0.00 0.00 0.00 49 1005.9
20260508211010 17 317 9.7 16.1 0.00 0.00 0.00 47 1006.0
20260508210546 17 242 4.8 22.5 0.00 0.00 0.00 51 1006.0
20260508210059 17 289 8.0 12.9 0.00 0.00 0.00 48 1005.9
20260508205540 16 281 1.6 12.9 0.00 0.00 0.00 49 1006.0
20260508205058 16 252 8.0 12.9 0.00 0.00 0.00 47 1006.1
20260508204543 17 260 3.2 19.3 0.00 0.00 0.00 51 1006.0
20260508204022 17 252 6.4 19.3 0.00 0.00 0.00 47 1006.1
20260508203540 17 289 6.4 14.5 0.00 0.00 0.00 49 1006.2
20260508203018 17 307 8.0 14.5 0.00 0.00 0.00 50 1006.2
20260508202540 17 313 3.2 14.5 0.00 0.00 0.00 48 1006.3
20260508202024 17 301 6.4 19.3 0.00 0.00 0.00 47 1006.3
20260508201600 17 172 8.0 19.3 0.00 0.00 0.00 48 1006.4
20260508201502 17 221 9.7 17.7 0.00 0.00 0.00 47 1006.4
20260508201024 17 286 1.6 11.3 0.00 0.00 0.00 49 1006.4
20260508200559 17 244 4.8 16.1 0.00 0.00 0.00 47 1006.4
20260508200042 17 253 4.8 16.1 0.00 0.00 0.00 49 1006.6
20260508195521 17 297 3.2 9.7 0.00 0.00 0.00 47 1006.7
20260508195055 16 150 3.2 11.3 0.00 0.00 0.00 47 1006.7
20260508194537 16 312 0.0 14.5 0.00 0.00 0.00 50 1006.8
20260508194052 16 256 4.8 19.3 0.00 0.00 0.00 49 1007.0
20260508193532 17 278 8.0 19.3 0.00 0.00 0.00 48 1007.0
20260508193053 17 191 8.0 24.1 0.00 0.00 0.00 48 1007.1
20260508192531 17 286 4.8 16.1 0.00 0.00 0.00 50 1007.1
20260508192010 16 298 8.0 17.7 0.00 0.00 0.00 48 1007.3
20260508191530 17 270 4.8 12.9 0.00 0.00 0.00 51 1007.4
20260508191008 16 219 4.8 16.1 0.00 0.00 0.00 51 1007.4
20260508190530 16 228 3.2 16.1 0.00 0.00 0.00 49 1007.4
20260508190012 16 268 1.6 19.3 0.00 0.00 0.00 49 1007.6
20260508185532 17 240 12.9 19.3 0.00 0.00 0.00 48 1007.6
20260508185012 17 273 3.2 19.3 0.00 0.00 0.00 54 1007.7
20260508184551 16 303 3.2 17.7 0.00 0.00 0.00 53 1007.6
20260508184009 16 261 6.4 14.5 0.00 0.00 0.00 53 1007.9
20260508183547 16 236 3.2 11.3 0.00 0.00 0.00 51 1007.8
20260508183024 16 133 1.6 9.7 0.00 0.00 0.00 47 1008.0
20260508182545 16 143 1.6 22.5 0.00 0.00 0.00 52 1008.0
20260508182027 16 294 8.0 22.5 0.00 0.00 0.00 50 1008.1
20260508181506 16 259 6.4 22.5 0.00 0.00 0.00 50 1008.0
20260508181045 16 253 9.7 22.5 0.00 0.00 0.00 50 1008.1
20260508180504 16 268 3.2 16.1 0.00 0.00 0.00 49 1008.3
20260508180053 15 251 3.2 16.1 0.00 0.00 0.00 50 1008.3
20260508175556 16 271 3.2 24.1 0.00 0.00 0.00 49 1008.4
20260508175040 16 238 8.0 24.1 0.00 0.00 0.00 50 1008.5
20260508174528 16 258 6.4 12.9 0.00 0.00 0.00 49 1008.5
20260508174032 15 198 1.6 14.5 0.00 0.00 0.00 54 1008.6
20260508173508 15 231 4.8 19.3 0.00 0.00 0.00 54 1008.7
20260508173047 15 267 8.0 19.3 0.00 0.00 0.00 52 1008.6
20260508172512 15 128 3.2 12.9 0.00 0.00 0.00 53 1008.7
20260508172050 15 213 1.6 16.1 0.00 0.00 0.00 53 1008.7
20260508171523 15 251 4.8 16.1 0.00 0.00 0.00 52 1008.8
20260508171047 15 271 0.0 9.7 0.00 0.00 0.00 53 1008.9
20260508170517 15 107 1.6 11.3 0.00 0.00 0.00 53 1009.1
20260508170037 15 309 6.4 12.9 0.00 0.00 0.00 53 1009.1
20260508165520 15 258 4.8 12.9 0.00 0.00 0.00 53 1009.3
20260508165056 14 279 0.0 14.5 0.00 0.00 0.00 54 1009.3
20260508164518 14 296 6.4 14.5 0.00 0.00 0.00 53 1009.5
20260508164051 15 286 4.8 12.9 0.00 0.00 0.00 53 1009.6
20260508163513 14 296 1.6 16.1 0.00 0.00 0.00 55 1009.6
20260508163049 14 304 3.2 16.1 0.00 0.00 0.00 58 1009.6
20260508162534 14 296 6.4 16.1 0.00 0.00 0.00 55 1009.7
20260508162052 14 267 3.2 11.3 0.00 0.00 0.00 57 1009.7
20260508161536 14 295 3.2 11.3 0.00 0.00 0.00 55 1009.6
20260508161012 13 309 4.8 12.9 0.00 0.00 0.00 57 1009.7
20260508160533 13 239 3.2 12.9 0.00 0.00 0.00 56 1009.7
20260508160015 13 308 3.2 14.5 0.00 0.00 0.00 57 1009.8
20260508155549 13 256 3.2 14.5 0.00 0.00 0.00 57 1010.0
20260508155013 13 267 8.0 14.5 0.00 0.00 0.00 61 1010.0
20260508154546 13 309 1.6 12.9 0.00 0.00 0.00 64 1010.0
20260508154023 13 312 4.8 12.9 0.00 0.00 0.00 63 1010.0
20260508153543 13 331 4.8 9.7 0.00 0.00 0.00 64 1010.1
20260508153025 13 342 0.0 6.4 0.00 0.00 0.00 66 1010.1
20260508152601 12 80 0.0 1.6 0.00 0.00 0.00 67 1010.1
20260508152502 12 344 0.0 3.2 0.00 0.00 0.00 68 1010.1
20260508152041 12 344 0.0 6.4 0.00 0.00 0.00 68 1010.2
20260508151517 12 344 4.8 8.0 0.00 0.00 0.00 69 1010.3
20260508151041 12 343 3.2 8.0 0.00 0.00 0.00 70 1010.2
20260508150518 12 345 3.2 6.4 0.00 0.00 0.00 71 1010.3
20260508150035 12 347 0.0 8.0 0.00 0.00 0.00 73 1010.3
20260508145516 11 346 0.0 8.0 0.00 0.00 0.00 74 1010.3
20260508145050 11 5 4.8 6.4 0.00 0.00 0.00 74 1010.4
20260508144515 11 21 0.0 4.8 0.00 0.00 0.00 74 1010.5
20260508144051 11 21 0.0 6.4 0.00 0.00 0.00 73 1010.5
20260508143512 11 21 1.6 6.4 0.00 0.00 0.00 72 1010.4
20260508143055 11 321 0.0 9.7 0.00 0.00 0.00 74 1010.5
20260508142514 11 320 1.6 9.7 0.00 0.00 0.00 74 1010.5
20260508142047 11 26 0.0 9.7 0.00 0.00 0.00 73 1010.4
20260508141511 11 31 3.2 8.0 0.00 0.00 0.00 72 1010.3
20260508141041 11 331 1.6 9.7 0.00 0.00 0.00 76 1010.4
20260508140519 11 28 4.8 11.3 0.00 0.00 0.00 77 1010.5
20260508140041 11 355 4.8 11.3 0.00 0.00 0.00 78 1010.5
20260508135523 11 32 1.6 9.7 0.00 0.00 0.00 81 1010.6
20260508135100 10 300 1.6 8.0 0.00 0.00 0.00 81 1010.6
20260508135002 10 300 3.2 8.0 0.00 0.00 0.00 82 1010.5
20260508134531 10 313 1.6 8.0 0.00 0.00 0.00 82 1010.6
20260508134059 10 12 3.2 8.0 0.00 0.00 0.00 83 1010.7
20260508134002 10 321 1.6 8.0 0.00 0.00 0.00 82 1010.7
20260508133539 10 343 3.2 8.0 0.00 0.00 0.00 83 1010.7
20260508133056 10 302 1.6 8.0 0.00 0.00 0.00 86 1010.6
20260508132538 10 296 3.2 11.3 0.00 0.00 0.00 86 1010.7
20260508132015 9 325 3.2 11.3 0.00 0.00 0.00 87 1010.7
20260508131537 9 329 4.8 8.0 0.00 0.00 0.00 88 1010.7
20260508131015 9 301 3.2 8.0 0.00 0.00 0.00 88 1010.7
20260508130538 9 311 3.2 8.0 0.00 0.00 0.00 89 1010.8
20260508130017 8 305 1.6 8.0 0.00 0.00 0.00 90 1010.9
20260508125553 8 308 0.0 11.3 0.00 0.00 0.00 91 1010.9
20260508125018 8 280 3.2 11.3 0.00 0.00 0.00 91 1010.9
20260508124553 8 317 3.2 11.3 0.00 0.00 0.00 92 1010.9
20260508124035 8 268 3.2 9.7 0.00 0.00 0.00 92 1010.9
20260508123553 8 278 4.8 8.0 0.00 0.00 0.00 92 1010.9
20260508123036 7 306 1.6 11.3 0.00 0.00 0.00 93 1010.8
20260508122516 7 250 3.2 11.3 0.00 0.00 0.00 93 1010.8
20260508122052 7 302 1.6 9.7 0.00 0.00 0.00 94 1010.7
20260508121524 7 288 0.0 8.0 0.00 0.00 0.00 94 1010.6
20260508121052 7 269 1.6 6.4 0.00 0.00 0.00 94 1010.6
20260508120515 6 258 3.2 6.4 0.00 0.00 0.00 95 1010.5
20260508120047 6 269 0.0 0.0 0.00 0.00 0.00 95 1010.5
20260508115524 6 263 0.0 0.0 0.00 0.00 0.00 95 1010.4
20260508115047 6 263 0.0 3.2 0.00 0.00 0.00 95 1010.4
20260508114521 5 263 0.0 3.2 0.00 0.00 0.00 95 1010.3
20260508114044 5 263 0.0 0.0 0.00 0.00 0.00 95 1010.2
20260508113519 4 263 0.0 0.0 0.00 0.00 0.00 95 1010.3
20260508113040 3 263 0.0 0.0 0.00 0.00 0.00 94 1010.3
20260508112519 3 263 0.0 0.0 0.00 0.00 0.00 93 1010.2
20260508112040 2 263 0.0 0.0 0.00 0.00 0.00 92 1010.2
20260508111517 2 263 0.0 0.0 0.00 0.00 0.00 92 1010.1
20260508111041 2 263 0.0 0.0 0.00 0.00 0.00 92 1010.1
20260508110522 2 263 0.0 0.0 0.00 0.00 0.00 92 1010.1
20260508110059 2 263 0.0 0.0 0.00 0.00 0.00 92 1010.1
20260508110004 2 263 0.0 0.0 0.00 0.00 0.00 92 1010.0
20260508105541 2 263 0.0 0.0 0.00 0.00 0.00 92 1010.0
20260508105059 3 263 0.0 0.0 0.00 0.00 0.00 92 1010.0
20260508105001 3 263 0.0 0.0 0.00 0.00 0.00 92 1010.1
20260508104542 3 263 0.0 0.0 0.00 0.00 0.00 92 1010.0
20260508104058 3 263 0.0 0.0 0.00 0.00 0.00 92 1009.9
20260508103537 3 263 0.0 0.0 0.00 0.00 0.00 92 1009.8
20260508103034 3 263 0.0 0.0 0.00 0.00 0.00 92 1009.9
20260508102547 3 263 0.0 0.0 0.00 0.00 0.00 92 1009.9
20260508102029 3 263 0.0 0.0 0.00 0.00 0.00 92 1009.9
20260508101507 3 263 0.0 0.0 0.00 0.00 0.00 92 1009.9
20260508101047 3 263 0.0 0.0 0.00 0.00 0.00 92 1009.9
20260508100513 3 263 0.0 0.0 0.00 0.00 0.00 92 1009.8
20260508100046 3 263 0.0 0.0 0.00 0.00 0.00 92 1009.9
20260508095510 3 263 0.0 0.0 0.00 0.00 0.00 92 1009.9
20260508095047 3 263 0.0 0.0 0.00 0.00 0.00 92 1009.9
20260508094529 3 263 0.0 0.0 0.00 0.00 0.00 92 1010.0
20260508094050 3 263 0.0 0.0 0.00 0.00 0.00 92 1010.0
20260508093526 3 263 0.0 0.0 0.00 0.00 0.00 92 1010.0
20260508093059 3 263 0.0 0.0 0.00 0.00 0.00 92 1010.0
20260508092522 3 263 0.0 0.0 0.00 0.00 0.00 92 1010.0
20260508092058 3 263 0.0 0.0 0.00 0.00 0.00 92 1010.1
20260508091542 3 263 0.0 0.0 0.00 0.00 0.00 92 1010.1
20260508091100 3 263 0.0 0.0 0.00 0.00 0.00 92 1010.0
20260508091008 3 263 0.0 0.0 0.00 0.00 0.00 92 1010.0
20260508090541 3 263 0.0 0.0 0.00 0.00 0.00 92 1010.0
20260508090055 3 263 0.0 0.0 0.00 0.00 0.00 92 1009.9
20260508085531 3 263 0.0 0.0 0.00 0.00 0.00 92 1010.0
20260508085048 3 263 0.0 0.0 0.00 0.00 0.00 92 1009.9
20260508084531 3 263 0.0 0.0 0.00 0.00 0.00 92 1009.8
20260508084010 3 263 0.0 0.0 0.00 0.00 0.00 92 1009.8
20260508083535 3 263 0.0 0.0 0.00 0.00 0.00 91 1009.8
20260508083049 3 263 0.0 0.0 0.00 0.00 0.00 91 1009.9
20260508082526 3 263 0.0 0.0 0.00 0.00 0.00 92 1009.9
20260508082004 3 263 0.0 0.0 0.00 0.00 0.00 91 1009.9
20260508081551 3 263 0.0 0.0 0.00 0.00 0.00 91 1010.0
20260508081042 3 263 0.0 0.0 0.00 0.00 0.00 91 1010.0
20260508080524 3 263 0.0 0.0 0.00 0.00 0.00 91 1010.2
20260508080100 3 263 0.0 0.0 0.00 0.00 0.00 91 1010.1
20260508080003 3 263 0.0 0.0 0.00 0.00 0.00 91 1010.1
20260508075528 3 263 0.0 0.0 0.00 0.00 0.00 91 1010.2
20260508075004 3 263 0.0 0.0 0.00 0.00 0.00 91 1010.2
20260508074526 4 263 0.0 0.0 0.00 0.00 0.00 91 1010.2
20260508074004 4 263 0.0 0.0 0.00 0.00 0.00 91 1010.3
20260508073542 4 263 0.0 0.0 0.00 0.00 0.00 91 1010.3
20260508073022 4 263 0.0 0.0 0.00 0.00 0.00 91 1010.4
20260508072540 4 263 0.0 0.0 0.00 0.00 0.00 90 1010.4
20260508072023 4 263 0.0 0.0 0.00 0.00 0.00 90 1010.3
20260508071600 5 263 0.0 0.0 0.00 0.00 0.00 90 1010.4
20260508071022 5 263 0.0 0.0 0.00 0.00 0.00 90 1010.3
20260508070559 5 263 0.0 0.0 0.00 0.00 0.00 90 1010.3
20260508070039 5 263 0.0 0.0 0.00 0.00 0.00 90 1010.4
20260508065519 5 263 0.0 0.0 0.00 0.00 0.00 90 1010.3
20260508065050 5 263 0.0 0.0 0.00 0.00 0.00 90 1010.4
20260508064532 5 263 0.0 0.0 0.00 0.00 0.00 90 1010.4
20260508064052 5 263 0.0 0.0 0.00 0.00 0.00 90 1010.5
20260508063531 5 263 0.0 0.0 0.00 0.00 0.00 89 1010.5
20260508063056 5 263 0.0 0.0 0.00 0.00 0.00 89 1010.5
20260508062532 5 263 0.0 0.0 0.00 0.00 0.00 90 1010.5
20260508062008 5 263 0.0 0.0 0.00 0.00 0.00 90 1010.5
20260508061528 5 263 0.0 0.0 0.00 0.00 0.00 89 1010.5
20260508061005 5 263 0.0 0.0 0.00 0.00 0.00 90 1010.5
20260508060540 5 263 0.0 0.0 0.00 0.00 0.00 89 1010.4
20260508060105 5 263 0.0 0.0 0.00 0.00 0.00 89 1010.4
20260508055540 5 263 0.0 0.0 0.00 0.00 0.00 89 1010.5
20260508055059 5 263 0.0 0.0 0.00 0.00 0.00 89 1010.4
20260508054538 5 263 0.0 0.0 0.00 0.00 0.00 89 1010.4
20260508054055 5 263 0.0 0.0 0.00 0.00 0.00 89 1010.3
20260508053538 5 263 0.0 0.0 0.00 0.00 0.00 89 1010.5
20260508053021 5 263 0.0 0.0 0.00 0.00 0.00 89 1010.5
20260508052537 5 265 0.0 0.0 0.00 0.00 0.00 89 1010.4
20260508052019 5 265 0.0 0.0 0.00 0.00 0.00 89 1010.5
20260508051557 5 263 0.0 0.0 0.00 0.00 0.00 88 1010.6
20260508051040 5 263 0.0 0.0 0.00 0.00 0.00 88 1010.6
20260508050522 5 263 0.0 0.0 0.00 0.00 0.00 88 1010.6
20260508050052 5 263 0.0 0.0 0.00 0.00 0.00 87 1010.6
20260508045529 5 263 0.0 0.0 0.00 0.00 0.00 87 1010.6
20260508045015 5 263 0.0 0.0 0.00 0.00 0.00 87 1010.6
20260508044550 5 263 0.0 0.0 0.00 0.00 0.00 87 1010.6
20260508044027 6 263 0.0 0.0 0.00 0.00 0.00 86 1010.6
20260508043544 6 263 0.0 0.0 0.00 0.00 0.00 86 1010.5
20260508043022 6 263 0.0 0.0 0.00 0.00 0.00 86 1010.4
20260508042542 6 263 0.0 0.0 0.00 0.00 0.00 85 1010.4
20260508042019 6 263 0.0 0.0 0.00 0.00 0.00 86 1010.4
20260508041544 6 263 0.0 0.0 0.00 0.00 0.00 85 1010.5
20260508041026 6 263 0.0 0.0 0.00 0.00 0.00 85 1010.5
20260508040504 6 263 0.0 0.0 0.00 0.00 0.00 85 1010.4
20260508040045 6 263 0.0 0.0 0.00 0.00 0.00 84 1010.5
20260508035515 6 263 0.0 0.0 0.00 0.00 0.00 84 1010.5
20260508035037 6 263 0.0 0.0 0.00 0.00 0.00 84 1010.5
20260508034515 6 262 0.0 0.0 0.00 0.00 0.00 83 1010.5
20260508034036 6 262 0.0 0.0 0.00 0.00 0.00 82 1010.5
20260508033514 7 262 0.0 0.0 0.00 0.00 0.00 82 1010.6
20260508033037 7 262 0.0 0.0 0.00 0.00 0.00 81 1010.6
20260508032521 7 262 0.0 0.0 0.00 0.00 0.00 81 1010.5
20260508032045 7 262 0.0 0.0 0.00 0.00 0.00 80 1010.5
20260508031527 7 262 0.0 0.0 0.00 0.00 0.00 79 1010.5
20260508031008 7 262 0.0 0.0 0.00 0.00 0.00 79 1010.6
20260508030525 7 262 0.0 0.0 0.00 0.00 0.00 78 1010.6
20260508030006 8 262 0.0 0.0 0.00 0.00 0.00 77 1010.7
20260508025527 8 262 0.0 0.0 0.00 0.00 0.00 77 1010.8
20260508025100 8 262 0.0 0.0 0.00 0.00 0.00 76 1010.8
20260508025004 8 262 0.0 0.0 0.00 0.00 0.00 76 1010.8
20260508024543 8 262 0.0 9.7 0.00 0.00 0.00 76 1010.8
20260508024007 8 262 1.6 9.7 0.00 0.00 0.00 76 1010.8
20260508023523 8 259 0.0 3.2 0.00 0.00 0.00 76 1010.8
20260508023059 8 259 0.0 4.8 0.00 0.00 0.00 75 1010.8
20260508023001 8 259 0.0 4.8 0.00 0.00 0.00 76 1010.8
20260508022541 8 259 0.0 6.4 0.00 0.00 0.00 76 1010.8
20260508022057 8 259 0.0 6.4 0.00 0.00 0.00 75 1010.8
20260508021539 8 262 0.0 0.0 0.00 0.00 0.00 75 1010.8
20260508021016 8 262 0.0 0.0 0.00 0.00 0.00 76 1010.7
20260508020537 8 262 0.0 0.0 0.00 0.00 0.00 75 1010.7
20260508020015 8 262 0.0 6.4 0.00 0.00 0.00 75 1010.7
20260508015530 9 262 0.0 6.4 0.00 0.00 0.00 73 1010.7
20260508015004 9 260 0.0 0.0 0.00 0.00 0.00 73 1010.7
20260508014528 9 260 0.0 0.0 0.00 0.00 0.00 73 1010.7
20260508014058 9 238 0.0 4.8 0.00 0.00 0.00 72 1010.7
20260508014003 9 237 0.0 6.4 0.00 0.00 0.00 72 1010.7
20260508013522 10 236 0.0 11.3 0.00 0.00 0.00 71 1010.5
20260508013059 10 232 3.2 11.3 0.00 0.00 0.00 70 1010.5
20260508013000 10 225 0.0 8.0 0.00 0.00 0.00 70 1010.4
20260508012540 10 284 0.0 8.0 0.00 0.00 0.00 69 1010.5
20260508012057 10 282 0.0 8.0 0.00 0.00 0.00 68 1010.4
20260508011539 10 236 0.0 9.7 0.00 0.00 0.00 67 1010.4
20260508011100 10 234 1.6 9.7 0.00 0.00 0.00 67 1010.4
20260508010539 10 252 0.0 14.5 0.00 0.00 0.00 66 1010.4
20260508010054 10 222 4.8 14.5 0.00 0.00 0.00 65 1010.4
20260508005541 10 281 0.0 4.8 0.00 0.00 0.00 65 1010.2
20260508005054 10 284 0.0 6.4 0.00 0.00 0.00 65 1010.2
20260508004536 10 285 1.6 11.3 0.00 0.00 0.00 64 1010.2
20260508004017 10 250 0.0 11.3 0.00 0.00 0.00 64 1010.1
20260508003537 10 248 3.2 17.7 0.00 0.00 0.00 63 1010.1
20260508003015 10 134 3.2 17.7 0.00 0.00 0.00 61 1010.1
20260508002538 11 252 1.6 8.0 0.00 0.00 0.00 60 1010.0
20260508002018 11 240 0.0 0.0 0.00 0.00 0.00 59 1010.0
20260508001555 11 240 0.0 0.0 0.00 0.00 0.00 60 1010.0
20260508001018 11 240 0.0 0.0 0.00 0.00 0.00 56 1009.9
20260508000553 11 240 0.0 0.0 0.00 0.00 0.00 56 1009.9
20260508000016 11 240 0.0 0.0 0.00 0.00 0.00 56 1009.9
20260507235552 11 240 0.0 6.4 0.00 0.00 0.00 55 1009.9
20260507235037 11 252 0.0 9.7 0.00 0.00 0.00 55 1009.9
20260507234551 11 244 1.6 12.9 0.00 0.00 0.00 54 1009.9
20260507234035 11 252 0.0 12.9 0.00 0.00 0.00 54 1010.0
20260507233551 11 278 0.0 12.9 0.00 0.00 0.00 53 1010.0
20260507233041 11 278 1.6 12.9 0.00 0.00 0.00 53 1010.0
20260507232548 11 232 1.6 6.4 0.00 0.00 0.00 52 1010.0
20260507232032 11 259 0.0 9.7 0.00 0.00 0.00 51 1010.1
20260507231548 11 248 1.6 12.9 0.00 0.00 0.00 50 1010.1
20260507231028 11 270 0.0 12.9 0.00 0.00 0.00 51 1010.1
20260507230506 12 215 1.6 12.9 0.00 0.00 0.00 50 1010.2
20260507230028 12 242 1.6 8.0 0.00 0.00 0.00 50 1010.1
20260507225510 12 294 1.6 6.4 0.00 0.00 0.00 49 1010.1
20260507225032 12 298 0.0 8.0 0.00 0.00 0.00 48 1010.2
20260507224516 12 276 0.0 8.0 0.00 0.00 0.00 48 1010.3
20260507224050 12 234 1.6 11.3 0.00 0.00 0.00 48 1010.3
20260507223512 12 249 3.2 12.9 0.00 0.00 0.00 47 1010.3
20260507223048 12 278 4.8 12.9 0.00 0.00 0.00 47 1010.2
20260507222516 12 318 1.6 6.4 0.00 0.00 0.00 49 1010.3
20260507222050 12 261 0.0 6.4 0.00 0.00 0.00 49 1010.3
20260507221538 12 286 0.0 14.5 0.00 0.00 0.00 49 1010.2
20260507221005 12 304 1.6 14.5 0.00 0.00 0.00 47 1010.3
20260507220526 12 282 0.0 11.3 0.00 0.00 0.00 46 1010.4
20260507220006 13 315 1.6 17.7 0.00 0.00 0.00 51 1010.3
20260507215528 13 300 3.2 17.7 0.00 0.00 0.00 45 1010.3
20260507215006 12 291 1.6 12.9 0.00 0.00 0.00 48 1010.3
20260507214522 12 256 1.6 16.1 0.00 0.00 0.00 47 1010.2